| time (UTC) | temp C | wind direction | speed KPH | gust KPH | rain 1hr cm | rain 24hr cm | rain mn cm | humidity % | barometer mb |
| 20260906203102 | 33 | 249 | 4.8 | 16.1 | 0.00 | 0.00 | 0.00 | 71 | 1008.2 |
| 20260906201529 | 33 | 221 | 9.7 | 20.9 | 0.00 | 0.00 | 0.00 | 72 | 1008.3 |
| 20260906200128 | 33 | 278 | 9.7 | 19.3 | 0.00 | 0.00 | 0.00 | 72 | 1008.6 |
| 20260906194507 | 33 | 225 | 8.0 | 17.7 | 0.00 | 0.00 | 0.00 | 72 | 1008.9 |
| 20260906193101 | 32 | 252 | 6.4 | 14.5 | 0.00 | 0.00 | 0.00 | 74 | 1009.0 |
| 20260906193002 | 32 | 214 | 8.0 | 14.5 | 0.00 | 0.00 | 0.00 | 73 | 1009.0 |
| 20260906191548 | 33 | 218 | 6.4 | 14.5 | 0.00 | 0.00 | 0.00 | 70 | 1009.1 |
| 20260906190142 | 33 | 204 | 8.0 | 17.7 | 0.00 | 0.00 | 0.00 | 72 | 1009.3 |
| 20260906184531 | 33 | 240 | 8.0 | 16.1 | 0.00 | 0.00 | 0.00 | 72 | 1009.6 |
| 20260906183012 | 33 | 206 | 4.8 | 16.1 | 0.00 | 0.00 | 0.00 | 73 | 1009.6 |
| 20260906181600 | 33 | 241 | 6.4 | 16.1 | 0.00 | 0.00 | 0.00 | 72 | 1009.8 |
| 20260906180027 | 33 | 215 | 1.6 | 9.7 | 0.00 | 0.00 | 0.00 | 71 | 1009.9 |
| 20260906174526 | 32 | 214 | 8.0 | 16.1 | 0.00 | 0.00 | 0.00 | 73 | 1010.0 |
| 20260906173113 | 32 | 222 | 3.2 | 16.1 | 0.00 | 0.00 | 0.00 | 74 | 1009.9 |
| 20260906171550 | 32 | 213 | 6.4 | 14.5 | 0.00 | 0.00 | 0.00 | 75 | 1010.0 |
| 20260906170137 | 32 | 240 | 3.2 | 8.0 | 0.00 | 0.00 | 0.00 | 75 | 1010.0 |
| 20260906164523 | 32 | 228 | 6.4 | 12.9 | 0.00 | 0.00 | 0.00 | 77 | 1010.0 |
| 20260906163017 | 31 | 229 | 3.2 | 8.0 | 0.00 | 0.00 | 0.00 | 79 | 1010.0 |
| 20260906161600 | 31 | 277 | 0.0 | 4.8 | 0.00 | 0.00 | 0.00 | 77 | 1010.0 |
| 20260906160008 | 32 | 241 | 0.0 | 4.8 | 0.00 | 0.00 | 0.00 | 77 | 1010.0 |
| 20260906154549 | 31 | 273 | 1.6 | 8.0 | 0.00 | 0.00 | 0.00 | 78 | 1010.1 |
| 20260906153025 | 31 | 256 | 0.0 | 3.2 | 0.00 | 0.00 | 0.00 | 79 | 1010.0 |
| 20260906151555 | 31 | 314 | 0.0 | 4.8 | 0.00 | 0.00 | 0.00 | 79 | 1010.0 |
| 20260906150140 | 30 | 345 | 0.0 | 0.0 | 0.00 | 0.00 | 0.00 | 81 | 1010.0 |
| 20260906144533 | 30 | 345 | 0.0 | 1.6 | 0.00 | 0.00 | 0.00 | 82 | 1009.9 |
| 20260906143017 | 30 | 345 | 0.0 | 3.2 | 0.00 | 0.00 | 0.00 | 82 | 1009.7 |
| 20260906141505 | 29 | 345 | 1.6 | 3.2 | 0.00 | 0.00 | 0.00 | 84 | 1009.6 |
| 20260906140148 | 28 | 345 | 0.0 | 4.8 | 0.00 | 0.00 | 0.00 | 85 | 1009.7 |
| 20260906134533 | 28 | 88 | 1.6 | 3.2 | 0.00 | 0.00 | 0.00 | 84 | 1009.8 |
| 20260906133027 | 28 | 89 | 0.0 | 4.8 | 0.00 | 0.00 | 0.00 | 84 | 1009.6 |
| 20260906131530 | 28 | 90 | 0.0 | 4.8 | 0.00 | 0.00 | 0.00 | 85 | 1009.5 |
| 20260906130000 | 28 | 59 | 1.6 | 6.4 | 0.00 | 0.00 | 0.00 | 85 | 1009.3 |
| 20260906124608 | 28 | 59 | 0.0 | 3.2 | 0.00 | 0.00 | 0.00 | 82 | 1009.4 |
| 20260906123049 | 28 | 59 | 0.0 | 4.8 | 0.00 | 0.00 | 0.00 | 81 | 1009.3 |
| 20260906121542 | 28 | 94 | 1.6 | 4.8 | 0.00 | 0.00 | 0.00 | 79 | 1009.3 |
| 20260906120137 | 28 | 55 | 0.0 | 8.0 | 0.00 | 0.00 | 0.00 | 81 | 1009.4 |
| 20260906114526 | 28 | 36 | 3.2 | 6.4 | 0.00 | 0.00 | 0.00 | 73 | 1009.3 |
| 20260906113020 | 28 | 243 | 0.0 | 3.2 | 0.00 | 0.00 | 0.00 | 76 | 1009.3 |
| 20260906111501 | 28 | 243 | 0.0 | 3.2 | 0.00 | 0.00 | 0.00 | 78 | 1009.3 |
| 20260906110145 | 28 | 243 | 3.2 | 9.7 | 0.00 | 0.00 | 0.00 | 76 | 1009.2 |
| 20260906104522 | 28 | 245 | 8.0 | 14.5 | 0.00 | 0.00 | 0.00 | 74 | 1009.0 |
| 20260906103017 | 29 | 250 | 9.7 | 16.1 | 0.00 | 0.00 | 0.00 | 81 | 1009.3 |
| 20260906101549 | 30 | 273 | 0.0 | 3.2 | 0.00 | 0.00 | 0.00 | 84 | 1009.4 |
| 20260906100134 | 30 | 273 | 0.0 | 3.2 | 0.00 | 0.00 | 0.00 | 85 | 1009.2 |
| 20260906094547 | 30 | 273 | 0.0 | 4.8 | 0.00 | 0.00 | 0.00 | 86 | 1009.2 |
| 20260906093025 | 30 | 273 | 1.6 | 4.8 | 0.00 | 0.00 | 0.00 | 80 | 1009.2 |
| 20260906091601 | 30 | 277 | 0.0 | 4.8 | 0.00 | 0.00 | 0.00 | 79 | 1009.2 |
| 20260906090143 | 30 | 301 | 3.2 | 8.0 | 0.00 | 0.00 | 0.00 | 80 | 1009.3 |
| 20260906084529 | 30 | 286 | 1.6 | 4.8 | 0.00 | 0.00 | 0.00 | 79 | 1009.1 |
| 20260906083007 | 30 | 360 | 1.6 | 4.8 | 0.00 | 0.00 | 0.00 | 79 | 1009.1 |
| 20260906081550 | 30 | 5 | 0.0 | 3.2 | 0.00 | 0.00 | 0.00 | 80 | 1009.3 |
| 20260906080133 | 30 | 5 | 1.6 | 4.8 | 0.00 | 0.00 | 0.00 | 80 | 1009.3 |
| 20260906074507 | 30 | 336 | 0.0 | 3.2 | 0.00 | 0.10 | 0.00 | 80 | 1009.5 |
| 20260906073005 | 30 | 335 | 0.0 | 3.2 | 0.00 | 0.10 | 0.00 | 80 | 1009.7 |
| 20260906071551 | 30 | 333 | 1.6 | 6.4 | 0.00 | 0.10 | 0.00 | 80 | 1009.7 |
| 20260906070011 | 30 | 348 | 1.6 | 6.4 | 0.00 | 0.10 | 0.00 | 80 | 1009.6 |
| 20260906064505 | 30 | 290 | 3.2 | 9.7 | 0.00 | 0.43 | 0.10 | 80 | 1009.6 |
| 20260906063007 | 30 | 346 | 3.2 | 8.0 | 0.00 | 0.43 | 0.10 | 80 | 1009.6 |
| 20260906061615 | 30 | 316 | 3.2 | 8.0 | 0.00 | 0.43 | 0.10 | 79 | 1009.7 |
| 20260906060149 | 30 | 333 | 1.6 | 8.0 | 0.00 | 0.43 | 0.10 | 78 | 1009.9 |
| 20260906054537 | 30 | 325 | 4.8 | 9.7 | 0.00 | 0.43 | 0.10 | 78 | 1010.1 |
| 20260906053009 | 31 | 325 | 1.6 | 6.4 | 0.00 | 0.43 | 0.10 | 78 | 1010.2 |
| 20260906051559 | 31 | 328 | 3.2 | 8.0 | 0.00 | 0.43 | 0.10 | 78 | 1010.3 |
| 20260906050137 | 31 | 305 | 4.8 | 8.0 | 0.00 | 0.43 | 0.10 | 77 | 1010.4 |
| 20260906044519 | 31 | 321 | 1.6 | 6.4 | 0.00 | 0.46 | 0.10 | 77 | 1010.5 |
| 20260906043018 | 31 | 337 | 3.2 | 8.0 | 0.00 | 0.46 | 0.10 | 77 | 1010.3 |
| 20260906041557 | 31 | 333 | 3.2 | 9.7 | 0.00 | 0.46 | 0.10 | 76 | 1010.1 |
| 20260906040148 | 31 | 298 | 4.8 | 14.5 | 0.00 | 0.46 | 0.10 | 77 | 1010.2 |
| 20260906034528 | 31 | 277 | 6.4 | 19.3 | 0.00 | 0.46 | 0.10 | 77 | 1010.1 |
| 20260906033005 | 31 | 322 | 6.4 | 16.1 | 0.00 | 0.46 | 0.10 | 76 | 1009.9 |
| 20260906031551 | 31 | 302 | 6.4 | 14.5 | 0.00 | 0.46 | 0.10 | 76 | 1009.9 |
| 20260906030132 | 31 | 271 | 8.0 | 20.9 | 0.00 | 0.46 | 0.10 | 78 | 1009.7 |
| 20260906024514 | 31 | 271 | 4.8 | 14.5 | 0.00 | 0.46 | 0.10 | 78 | 1009.6 |
| 20260906023107 | 31 | 276 | 8.0 | 14.5 | 0.00 | 0.46 | 0.10 | 78 | 1009.4 |
| 20260906021551 | 31 | 269 | 6.4 | 17.7 | 0.00 | 0.46 | 0.10 | 78 | 1009.4 |
| 20260906020022 | 31 | 258 | 8.0 | 16.1 | 0.00 | 0.46 | 0.10 | 79 | 1009.1 |
| 20260906014514 | 31 | 250 | 9.7 | 22.5 | 0.00 | 0.46 | 0.10 | 80 | 1008.9 |
| 20260906013057 | 31 | 282 | 4.8 | 17.7 | 0.00 | 0.46 | 0.10 | 79 | 1008.8 |
| 20260906011537 | 31 | 269 | 6.4 | 17.7 | 0.00 | 0.46 | 0.10 | 76 | 1008.5 |
| 20260906010130 | 31 | 250 | 6.4 | 17.7 | 0.00 | 0.46 | 0.10 | 74 | 1008.2 |
| 20260906004529 | 31 | 259 | 6.4 | 17.7 | 0.00 | 0.46 | 0.10 | 73 | 1008.1 |
| 20260906003015 | 32 | 220 | 4.8 | 19.3 | 0.00 | 0.46 | 0.10 | 74 | 1007.9 |
| 20260906001553 | 32 | 272 | 11.3 | 19.3 | 0.00 | 0.46 | 0.10 | 74 | 1007.8 |
| 20260906000023 | 32 | 271 | 8.0 | 17.7 | 0.00 | 0.46 | 0.10 | 74 | 1007.8 |
| 20260905234514 | 32 | 279 | 9.7 | 20.9 | 0.00 | 0.46 | 0.10 | 72 | 1007.9 |
| 20260905233117 | 32 | 274 | 9.7 | 16.1 | 0.00 | 0.46 | 0.10 | 71 | 1007.9 |
| 20260905231551 | 32 | 243 | 11.3 | 22.5 | 0.00 | 0.46 | 0.10 | 71 | 1007.8 |
| 20260905230148 | 32 | 227 | 8.0 | 19.3 | 0.00 | 0.46 | 0.10 | 71 | 1007.7 |
| 20260905224530 | 33 | 259 | 9.7 | 17.7 | 0.00 | 0.46 | 0.10 | 72 | 1007.8 |
| 20260905223013 | 32 | 291 | 9.7 | 20.9 | 0.00 | 0.46 | 0.10 | 72 | 1007.8 |
| 20260905221556 | 32 | 265 | 6.4 | 19.3 | 0.00 | 0.46 | 0.10 | 71 | 1007.9 |
| 20260905220013 | 32 | 265 | 11.3 | 22.5 | 0.00 | 0.46 | 0.10 | 72 | 1008.0 |
| 20260905214505 | 32 | 248 | 9.7 | 22.5 | 0.00 | 0.46 | 0.10 | 73 | 1008.3 |
| 20260905213103 | 33 | 249 | 11.3 | 22.5 | 0.00 | 0.46 | 0.10 | 70 | 1008.3 |
| 20260905211548 | 33 | 264 | 8.0 | 19.3 | 0.00 | 0.46 | 0.10 | 70 | 1008.6 |
| 20260905210146 | 33 | 244 | 9.7 | 24.1 | 0.00 | 0.46 | 0.10 | 70 | 1008.6 |
| 20260905204544 | 33 | 255 | 9.7 | 22.5 | 0.00 | 0.46 | 0.10 | 70 | 1008.8 |